Weather in Oleshky

Ukraine / Kherson District     46°36′50″N   32°43′04″E
temp.,
°C
wind,
m/s
gust,
m/s
humid.,
%
clouds,
%
prec.,
mm/h
press.,
hPa
HPBL,
m
18 may, wed
wed1800:00+16sw2473100 0.0 1012115
03:00+15w4883100 0.9 1011316
06:00+13nnw6993100 8.6 1009501
09:00+12n5884100 14.8 1011520
12:00+14n8960100 0.3 10121506
15:00+14n7846100 0.4 10141554
18:00+14n794760 0.0 10141636
21:00+10nnw6116738 0.8 1017623
19 may, thu
thu1900:00+8nw6117919 0.0 1019442
03:00+8nw5109095 0.0 1019328
06:00+9nnw71192100 1.0 1020586
09:00+12nnw7107257 1.8 1021741
12:00+17n8104658 0.1 10222121
15:00+17nnw594587 0.1 10221993
18:00+17nnw5847100 0.0 10221280
21:00+14wnw356183 0.0 102386
20 may, fri
fri2000:00+14wnw356270 0.0 1023112
03:00+12wnw34695 0.0 102355
06:00+11nw36755 0.0 1024119
09:00+17nw46535 0.0 1024563
12:00+21wnw663997 0.0 10231838
15:00+22w56386 0.0 10221982
18:00+21w6641100 0.0 1021890
21:00+16sw51066100 0.0 1021247
21 may, sat
sat2100:00+15sw61266100 0.0 1019302
03:00+14sw6138169 0.0 1017313
06:00+14sw61386100 0.0 1015348
09:00+19wsw81264100 0.0 1013627
12:00+23wsw894991 0.0 1012827
15:00+26wsw7104224 0.0 10101362
18:00+23wsw795345 0.0 1010563
21:00+18sw487287 0.1 1009238
22 may, sun
sun2200:00+17ssw3477100 0.0 1008112
03:00+17sw478550 0.4 1007195
06:00+16w4994100 0.4 1006314
09:00+18nw795967 0.4 1006735
12:00+22nw8104160 0.0 10061592
15:00+23wnw101135100 0.0 10052680
18:00+19wnw81149100 0.0 10051706
21:00+15nw611615 0.0 1006619